Home > Weather > Rovaniemi > Past weeks

Flag for Finland Weather for the Past 2 Weeks in Rovaniemi, Finland

Now
27 °F

Light snow. Mostly cloudy.


Feels Like: 14 °F
Forecast: 22 / 31 °F
Wind: 16 mph from Southeast

Location: Oulu Airport

Current Time: Feb 7, 2016 at 1:54:58 AM

Latest Report: Feb 7, 2016 at 1:20 AM


Visibility: 4 mi

Pressure: 29.39 "Hg

Humidity: 93%

Dew point: 25 °F

Location of RovaniemiLocation

Historic Weather in Rovaniemi — Graph

°F

Rovaniemi Temperature Yesterday

Maximum temperature yesterday: 25 °F (at 3:20 AM)
Minimum temperature yesterday: 19 °F (at 12:20 AM)
Average temperature yesterday: 23 °F

High & Low Weather Summary for the Past Weeks

 TemperatureHumidityPressure
High39 °F (Jan 30, 11:50 AM)100% (Jan 23, 6:20 PM)30.15 "Hg (Jan 23, 6:20 PM)
Low5 °F (Feb 5, 9:20 AM)56% (Jan 30, 1:50 PM)28.65 "Hg (Jan 30, 9:20 PM)
Average25 °F92%29.32 "Hg
* Reported Jan 23 12:20 AM — Feb 7 12:20 AM, Rovaniemi, Weather by CustomWeather, © 2016

Note: Actual official high and low records may vary slightly from our data, if they occured in-between our weather recording intervals... More about our weather records

Advertising

Rovaniemi Weather History for the Previous 24 Hours

 ConditionsComfort  
Time TempWeatherWind HumidityBarometerVisibility
12:20 AM
Sun, Feb 7
25 °FLight freezing rain. Overcast.16 mph93%29.39 "Hg4 mi
11:50 PM
Sat, Feb 6
25 °FLight freezing rain. Ice fog.18 mph93%29.42 "Hg3 mi
10:50 PM25 °FSnow. Ice fog.18 mph93%29.45 "Hg1 mi
10:20 PM25 °FLight snow. Mostly cloudy.18 mph86%29.45 "Hg2 mi
9:50 PM25 °FLight snow. Mostly cloudy.20 mph93%29.45 "Hg2 mi
9:20 PM25 °FSnow. Ice fog.18 mph93%29.47 "Hg1 mi
8:50 PM25 °FLight snow. Overcast.17 mph86%29.50 "Hg2 mi
8:20 PM25 °FLight snow. Mostly cloudy.16 mph86%29.50 "Hg3 mi
7:50 PM25 °FLight snow. Mostly cloudy.20 mph86%29.53 "Hg3 mi
7:20 PM25 °FLight snow. Mostly cloudy.20 mph86%29.53 "Hg4 mi
6:50 PM23 °FLight snow. Mostly cloudy.17 mph93%29.56 "Hg3 mi
6:20 PM23 °FLight snow. Overcast.20 mph93%29.56 "Hg3 mi
5:50 PM23 °FLight snow. Mostly cloudy.20 mph93%29.59 "Hg2 mi
5:20 PM23 °FLight snow. Mostly cloudy.18 mph93%29.62 "Hg3 mi
4:50 PM23 °FLight snow. Overcast.18 mph86%29.62 "Hg3 mi
4:20 PM23 °FLight freezing rain. Mostly cloudy.16 mph86%29.65 "HgN/A
3:50 PM23 °FLight freezing rain. Mostly cloudy.16 mph86%29.68 "HgN/A
3:20 PM23 °FPartly sunny.15 mph86%29.68 "HgN/A
2:50 PM23 °FPartly sunny.15 mph86%29.71 "HgN/A
2:20 PM23 °FPartly sunny.15 mph86%29.71 "HgN/A
1:50 PM23 °FSunny.15 mph86%29.74 "Hg10 mi
1:20 PM23 °FSunny.14 mph86%29.74 "Hg10 mi
12:50 PM23 °FSunny.13 mph86%29.77 "Hg10 mi
12:20 PM23 °FScattered clouds.12 mph86%29.77 "HgN/A
11:50 AM21 °FPartly sunny.10 mph93%29.80 "HgN/A
11:20 AM21 °FPassing clouds.9 mph93%29.80 "HgN/A
10:50 AM23 °FPartly sunny.8 mph86%29.80 "HgN/A
10:20 AM23 °FOvercast.8 mph86%29.80 "HgN/A
9:50 AM23 °FOvercast.8 mph86%29.80 "HgN/A
9:20 AM23 °FOvercast.7 mph93%29.80 "HgN/A
8:50 AM23 °FOvercast.5 mph93%29.80 "HgN/A
8:20 AM23 °FOvercast.5 mph93%29.80 "HgN/A
7:50 AM25 °FOvercast.5 mph93%29.80 "HgN/A
7:20 AM25 °FOvercast.5 mph93%29.80 "HgN/A
6:50 AM25 °FOvercast.5 mph93%29.80 "HgN/A
6:20 AM25 °FOvercast.5 mph86%29.80 "HgN/A
5:50 AM25 °FOvercast.5 mph86%29.80 "HgN/A
5:20 AM25 °FOvercast.3 mph86%29.80 "HgN/A
4:50 AM25 °FOvercast.6 mph86%29.80 "HgN/A
3:50 AM25 °FOvercast.5 mph86%29.80 "HgN/A
3:20 AM25 °FOvercast.2 mph86%29.80 "HgN/A
2:20 AM23 °FOvercast.3 mph93%29.77 "HgN/A
1:50 AM21 °FOvercast.6 mph93%29.77 "HgN/A
1:20 AM19 °FOvercast.1 mph93%29.77 "HgN/A
Weather by CustomWeather, © 2016

See weather overviewHow to use our weather pages